Terminal Aerodrome Forecast
Issued by NWS

Home | Current Version | Previous Version | Text Only | Print | Product List | Glossary On
Versions: 1 2 3 4 5 6 7 8 9 10 11 12 13 14 15 16
611
FTUS46 KLOX 230729 AAA
TAFSBP
TAF AMD
KSBP 230729Z 2307/2406 31008KT P6SM SCT008
     FM231000 VRB03KT P6SM BKN008
     FM231600 32015KT P6SM SCT200
     FM231900 32022G32KT P6SM SCT200
     FM240300 32015KT P6SM SKC=

USA.gov is the U.S. government's official web portal to all federal, state and local government web resources and services.